RH
22 21 21 20 19 18 17 17 16 16 15 14 14 13 13 12 12 12 11 11 10 10 9 9 9 10 10 11 14 19 22 22 20 17 15 13 11 9 8 6 5 7 10 20 33 39 39 36 32 28 25 21 18 16 14 13 12 12 12 11 10 9 7 6 7 6 6 6 6 10 12 20 23 15 13 14 14 14 14 11 6 5 5 4 6 6 8 12
23 22 22 22 21 19 18 17 17 17 16 16 15 15 14 14 14 13 13 13 12 11 11 10 9 10 10 10 11 15 21 23 21 20 19 15 12 10 9 7 6 5 7 16 27 36 40 39 36 31 28 25 22 18 16 15 14 13 12 12 12 10 9 7 7 6 6 6 6 14 21 24 23 15 12 16 16 14 13 10 6 5 5 5 6 8 12 15
22 22 22 22 21 20 19 18 18 17 17 16 15 15 14 14 14 13 13 13 13 12 12 11 10 10 10 11 11 12 19 23 23 24 23 18 14 12 11 9 7 5 5 10 19 30 38 40 38 35 32 29 26 22 20 18 16 15 14 15 14 13 11 9 9 7 7 6 5 16 25 25 21 13 10 16 17 14 11 8 7 6 6 6 6 10 16 17
23 22 22 21 20 20 19 19 18 18 17 17 16 16 15 15 14 13 13 12 12 12 12 12 11 10 10 11 12 12 16 20 24 29 28 22 17 14 12 10 8 7 5 6 11 23 34 38 38 38 36 33 30 27 23 21 19 18 18 18 16 16 15 12 11 8 8 7 5 13 23 24 19 12 8 11 13 12 10 8 7 7 6 6 7 11 16 19
24 24 24 23 22 20 20 19 19 18 18 17 17 16 16 15 14 13 12 12 12 11 11 12 11 11 11 11 12 12 14 17 24 32 31 25 21 16 13 12 10 8 6 5 7 15 26 34 37 38 38 37 34 31 28 26 24 22 22 21 19 18 17 15 14 12 10 9 6 9 19 26 21 13 7 8 11 10 9 8 8 8 6 6 7 11 16 21
25 25 24 24 24 23 22 20 20 19 18 18 17 16 15 14 13 13 12 12 11 11 11 11 11 11 10 11 12 13 13 15 21 32 34 29 25 19 15 13 11 10 7 6 5 8 17 27 32 35 38 39 37 35 33 31 28 26 28 26 23 22 20 19 18 16 14 12 10 8 15 27 23 12 7 8 11 12 10 10 10 9 7 7 7 12 18 21
22 23 24 25 25 24 24 22 21 19 18 18 16 15 14 13 13 12 11 11 10 10 10 10 11 10 11 11 11 13 13 13 19 31 37 33 29 23 18 14 12 11 9 7 6 5 9 16 24 33 37 38 38 39 38 36 32 29 32 31 27 26 23 22 21 19 18 15 14 10 12 23 20 9 8 10 11 13 13 12 13 12 9 7 8 15 21 19
15 17 18 21 22 23 24 23 22 19 18 17 16 15 14 13 12 11 11 10 10 10 9 9 10 10 11 10 11 12 13 17 21 30 39 37 33 27 21 16 13 13 11 9 7 6 6 7 16 27 33 36 38 40 40 38 35 32 34 34 31 29 26 25 24 21 21 18 17 15 13 19 17 10 10 12 13 13 13 12 12 12 10 8 9 16 17 17
14 14 13 13 15 17 19 21 21 19 18 16 15 14 13 12 11 10 10 9 9 9 9 9 8 10 11 10 11 10 15 24 22 25 34 36 35 31 25 19 15 14 12 11 9 7 5 4 9 18 28 35 36 38 39 37 36 36 38 37 33 32 28 27 26 24 23 21 20 18 16 19 18 14 12 12 14 14 12 11 9 9 9 8 10 15 18 23
17 16 15 13 11 11 12 14 17 17 17 15 14 12 11 10 9 9 8 8 8 7 8 8 7 8 9 11 10 9 22 27 17 17 25 31 35 34 30 23 17 15 14 12 10 8 7 6 6 10 19 27 31 35 37 36 36 38 40 40 36 33 31 29 28 26 25 24 22 21 18 20 20 17 14 12 14 14 13 10 7 7 7 7 9 16 27 35
21 19 18 17 14 12 10 9 11 12 13 12 10 9 9 8 7 7 6 7 6 6 6 6 8 6 7 11 8 13 28 26 16 17 20 27 35 36 33 27 20 16 15 13 11 9 8 7 6 6 8 15 24 33 34 35 36 38 40 41 39 36 33 31 29 28 27 25 24 23 19 19 20 17 15 14 14 16 15 11 8 7 6 6 8 15 26 33
25 22 20 19 19 16 13 10 9 8 8 8 8 7 7 7 7 6 6 6 5 5 5 5 7 6 7 7 8 20 30 22 17 17 16 22 33 39 37 32 25 18 15 14 13 12 10 9 7 5 5 7 15 25 31 35 36 36 38 40 40 38 35 33 31 29 28 27 25 24 20 18 18 16 15 13 12 14 14 11 10 9 7 6 9 17 24 27
28 26 23 21 20 20 17 13 10 8 8 7 7 7 7 7 6 6 6 5 5 5 4 5 4 5 6 4 12 25 24 18 17 15 15 17 26 39 41 36 30 22 17 15 15 14 12 10 8 6 6 5 8 14 22 31 35 35 36 37 39 38 36 34 32 30 28 27 26 25 21 18 18 15 14 12 11 11 11 9 9 10 10 7 11 21 27 26
29 28 25 23 21 21 21 18 13 10 9 8 8 7 7 7 6 6 6 5 6 5 5 5 4 5 5 5 17 24 17 17 17 14 16 15 21 37 43 39 34 25 20 17 16 16 13 11 9 7 6 5 6 8 13 22 29 33 34 35 37 37 37 35 33 32 29 27 26 25 22 19 17 14 13 12 10 9 9 9 7 9 11 11 16 25 28 26
30 30 27 25 23 22 22 20 17 12 10 9 8 8 8 7 7 7 7 6 6 6 6 5 4 4 3 8 21 22 14 14 15 16 18 16 20 34 44 43 38 30 24 20 18 17 15 13 10 8 7 6 6 6 8 12 18 26 30 32 35 36 36 35 34 32 30 28 26 25 23 20 17 14 13 12 10 9 9 8 8 8 10 12 16 21 25 26
31 30 29 27 25 23 22 22 19 15 11 10 9 9 8 8 8 8 7 7 7 7 6 5 5 4 3 12 22 19 14 14 18 22 20 18 20 31 45 46 41 36 28 23 20 18 17 14 12 10 8 8 6 5 6 7 10 15 20 27 33 35 35 36 34 33 31 28 27 25 23 21 18 15 14 12 10 9 8 8 8 8 10 13 14 16 21 24
30 30 30 28 26 25 23 22 20 17 13 11 10 10 9 9 9 9 8 8 8 8 7 5 5 4 4 12 19 19 19 19 21 22 20 20 20 28 43 47 45 40 32 26 23 20 19 16 13 12 10 9 7 6 5 5 5 7 10 18 28 33 35 35 34 33 32 29 28 27 24 22 18 15 15 13 11 10 9 9 9 8 10 15 19 20 19 19
30 30 30 29 28 26 25 23 21 17 14 12 11 11 10 10 10 9 9 9 10 9 8 7 6 6 6 10 16 20 21 18 18 20 20 22 22 24 37 48 48 44 37 30 25 22 19 17 15 13 11 9 8 6 5 4 4 4 6 11 20 27 32 34 34 34 33 31 29 28 26 23 18 15 15 15 12 11 11 13 12 9 10 16 24 27 21 19
31 30 30 29 28 27 25 23 20 17 14 13 12 12 11 11 11 10 10 10 11 10 10 9 8 8 9 10 17 21 19 15 14 15 17 21 24 23 32 47 50 45 41 34 28 24 20 18 15 12 10 9 8 6 6 6 5 5 6 9 14 20 26 32 33 33 33 32 30 29 28 24 18 15 15 16 14 13 17 20 17 12 11 17 28 30 26 24
31 31 30 30 28 27 25 22 20 17 15 14 13 13 12 12 12 11 11 12 12 12 10 10 10 13 15 15 19 23 21 19 16 14 17 19 23 23 28 42 50 48 45 39 32 26 21 18 15 12 10 10 9 8 7 7 7 7 7 8 11 14 20 27 31 31 32 32 31 31 30 26 20 16 16 17 15 16 22 22 16 14 15 21 30 31 28 27
32 31 31 30 28 27 25 22 19 17 16 15 14 14 13 12 13 12 12 13 13 11 10 11 11 15 21 18 19 23 21 20 18 17 18 20 23 22 21 30 43 50 47 43 38 30 24 19 14 14 13 12 12 10 9 9 8 8 8 8 9 11 14 21 26 29 30 30 31 31 31 32 26 18 18 21 18 15 18 17 12 16 21 26 32 33 35 34
32 32 30 29 28 26 24 21 18 17 16 15 14 14 12 13 13 11 11 12 13 11 11 13 14 20 26 21 19 23 21 19 20 19 20 22 22 20 19 20 29 46 53 49 43 35 28 21 17 16 16 15 14 12 11 11 10 9 9 9 9 10 12 15 20 25 28 27 30 31 34 37 29 23 29 33 30 21 15 15 15 19 24 30 34 35 41 47
32 31 30 28 27 24 23 21 18 16 15 14 14 13 12 12 12 12 11 12 13 10 11 16 19 24 28 23 20 22 23 24 25 26 25 24 23 21 21 18 20 38 52 50 45 39 31 24 21 19 18 17 15 14 12 12 11 9 10 10 10 11 12 14 18 23 26 27 30 32 37 41 33 32 41 44 43 30 17 16 18 23 31 38 42 42 45 50
31 30 28 26 25 23 21 19 17 16 15 14 13 12 12 12 12 13 11 11 12 10 13 20 24 26 29 27 24 24 27 29 30 32 30 26 26 26 23 20 21 30 42 49 48 44 37 31 27 22 20 18 16 15 14 13 13 11 10 11 11 12 15 18 20 24 27 28 33 35 41 46 40 38 43 44 43 30 20 21 18 23 37 47 51 48 43 40
29 27 26 24 22 21 19 18 16 15 14 13 12 12 12 11 11 12 10 10 11 12 16 23 26 27 29 26 24 28 31 31 33 35 32 29 29 31 28 26 23 23 35 50 51 47 43 39 34 27 22 20 18 16 15 15 14 12 12 11 11 14 19 22 24 30 33 32 34 36 41 46 42 41 44 45 41 31 28 26 18 22 36 47 53 49 43 35
27 25 24 21 20 18 17 16 15 14 14 12 12 11 10 10 10 9 9 9 10 13 19 24 25 25 26 24 26 32 32 32 37 37 33 33 34 38 39 33 26 24 35 51 54 49 48 45 40 34 27 23 20 17 16 16 16 14 13 13 12 16 24 29 32 38 40 39 40 36 37 44 43 41 49 53 47 41 39 30 20 25 36 45 53 53 48 39
24 22 20 18 16 14 13 13 13 13 12 11 10 9 8 8 8 8 9 8 10 17 21 22 23 25 26 26 29 32 32 35 42 42 39 39 39 40 43 39 32 30 39 52 55 50 50 50 44 39 33 28 23 19 18 17 16 15 14 15 13 17 32 40 38 42 42 42 47 42 36 45 48 44 51 57 53 49 44 31 24 28 38 46 52 54 47 38
17 16 15 13 11 10 10 10 11 11 10 9 8 6 6 7 6 8 8 7 17 30 34 29 23 24 25 26 28 30 33 38 41 44 46 46 44 42 41 40 38 40 43 45 47 49 53 53 48 44 38 32 26 22 22 20 17 16 17 19 14 19 40 45 39 44 43 40 50 51 41 44 50 49 52 54 51 49 45 33 25 27 38 46 47 46 38 34
9 9 10 8 7 7 6 7 8 8 7 7 6 5 6 6 6 8 7 13 32 46 49 43 33 27 25 25 27 29 32 37 39 43 47 48 49 47 44 43 46 51 51 46 47 54 58 55 53 50 43 36 31 26 25 22 18 19 20 20 17 26 47 51 47 53 49 40 47 52 45 43 49 52 52 52 48 46 42 35 29 32 43 48 43 38 32 34
4 5 5 5 5 4 4 6 5 6 6 5 4 5 5 5 7 8 8 22 48 61 62 60 52 40 30 27 28 29 31 35 37 39 43 47 50 52 53 55 55 56 56 54 54 57 60 60 57 54 48 42 38 31 28 24 21 22 22 21 19 30 50 58 60 68 63 47 42 48 49 45 50 52 50 50 49 45 41 37 33 35 42 46 42 38 34 35
4 4 3 4 4 3 4 4 4 5 4 4 4 4 5 5 8 8 11 32 60 73 72 73 71 57 41 33 33 32 30 31 34 35 38 43 49 52 56 59 60 60 60 57 55 58 63 63 58 55 53 48 42 36 31 27 25 23 22 23 21 29 47 59 70 78 67 46 37 48 55 49 49 51 47 49 49 45 42 38 36 35 37 42 43 41 38 38
5 4 4 5 4 4 5 3 5 4 3 5 4 4 5 5 8 10 21 52 77 82 81 82 81 71 54 41 35 33 31 29 31 33 34 37 44 50 53 55 55 56 58 56 56 61 63 61 58 56 56 53 47 41 34 29 27 24 23 24 25 34 47 56 73 78 58 41 41 54 62 56 50 49 48 50 49 47 46 43 43 42 43 51 53 49 45 45
6 5 5 6 5 6 4 3 5 3 4 5 3 6 4 6 17 18 32 70 88 85 84 81 77 72 63 52 39 33 31 28 27 29 30 33 39 46 52 56 57 54 55 56 57 59 60 62 62 58 56 55 51 45 38 32 28 25 24 23 26 39 47 51 67 71 51 43 51 58 64 62 56 53 51 52 50 49 48 47 46 46 51 62 63 58 54 52
8 7 7 7 7 7 4 5 5 3 6 4 3 7 2 10 28 28 44 83 94 85 78 74 72 65 60 57 47 37 31 27 26 24 26 29 34 41 48 54 59 59 61 62 60 57 55 56 56 56 56 55 53 49 42 36 31 27 26 24 24 30 36 44 58 61 48 45 55 61 64 63 59 56 54 53 52 51 49 47 47 50 56 65 67 66 64 59
14 11 12 13 10 7 5 6 5 4 6 3 5 6 4 19 32 36 67 98 100 93 87 85 80 63 58 58 48 42 35 27 25 22 22 26 30 35 43 51 56 60 63 62 61 60 56 51 51 56 57 53 54 52 45 41 35 30 26 25 25 22 28 46 60 62 56 53 58 62 61 58 57 58 57 53 49 49 50 50 51 55 61 67 69 71 71 64
25 17 24 24 14 9 7 6 6 5 5 4 5 5 15 35 41 56 91 102 98 100 97 97 86 68 72 66 44 42 39 31 28 24 21 21 26 32 37 46 55 59 62 61 60 62 60 57 58 62 60 55 54 52 49 45 40 36 31 26 25 24 33 56 68 69 66 61 61 63 59 54 52 54 54 48 44 44 47 53 57 59 65 73 75 77 74 64
32 36 52 43 17 9 8 6 7 6 4 5 7 13 36 56 59 80 103 98 99 102 93 96 90 82 89 69 42 41 40 38 35 29 28 23 21 28 32 41 52 56 63 63 61 63 61 61 64 65 64 60 55 53 50 48 47 44 35 28 26 25 33 54 70 73 69 63 64 65 60 53 47 43 40 39 43 44 44 49 54 60 70 79 81 81 76 63
53 65 76 52 17 10 11 8 8 6 6 7 12 29 55 72 78 95 104 97 102 101 91 96 96 93 90 63 50 55 52 57 50 34 38 34 24 26 27 34 45 52 63 68 65 65 63 66 67 64 68 68 62 58 54 53 57 52 44 40 34 26 26 40 60 73 71 64 64 65 60 54 49 42 36 39 45 45 44 48 56 68 79 80 80 82 75 63
82 87 76 40 16 14 10 10 10 7 6 11 28 52 74 90 96 100 102 98 102 100 96 101 97 90 80 59 66 81 74 77 73 50 45 43 37 35 28 30 41 48 61 69 67 67 66 70 73 69 72 77 74 65 57 61 67 64 63 63 51 34 26 28 43 63 71 65 62 65 60 52 49 48 51 57 55 49 49 54 62 73 76 73 74 76 69 63
95 95 68 34 35 34 13 11 13 5 10 31 61 83 90 99 102 99 100 99 101 101 99 103 96 85 75 60 74 97 85 73 80 76 66 56 53 54 42 34 38 42 56 71 72 72 71 72 78 80 79 85 87 77 71 80 80 67 65 68 60 46 34 33 43 56 68 68 61 62 60 50 47 51 60 68 66 59 57 58 60 64 67 68 70 68 66 67
90 77 48 34 52 43 13 12 13 6 26 64 91 100 98 100 101 99 101 99 101 103 99 101 98 89 82 70 77 100 89 68 79 96 92 73 64 70 64 49 43 42 52 69 73 73 72 72 84 94 88 87 94 89 88 98 93 74 63 60 59 53 43 48 57 54 57 67 64 59 58 54 55 59 63 67 67 65 64 61 59 59 62 66 68 71 75 74
70 60 59 66 76 56 25 18 15 18 53 90 101 101 100 101 100 99 101 100 102 104 100 100 100 96 94 87 85 99 94 76 84 102 102 86 77 86 89 78 69 52 42 58 74 75 73 74 90 103 96 91 98 98 96 100 96 82 73 66 64 62 53 57 66 55 44 52 59 59 59 58 61 62 62 65 65 63 62 58 58 64 69 70 72 79 81 77
60 76 92 98 98 87 54 21 18 43 80 101 101 100 101 99 100 100 100 101 102 102 100 100 101 100 101 97 90 94 95 86 89 100 99 91 90 99 100 94 89 66 41 55 83 89 81 77 88 102 101 95 100 100 96 97 97 86 77 76 76 72 64 59 65 65 56 50 50 53 57 58 59 61 59 62 65 64 62 57 58 66 70 69 72 80 81 78
76 101 102 96 97 101 72 26 31 73 99 103 101 100 101 99 100 101 99 101 102 99 96 97 102 101 100 100 92 91 95 92 93 97 91 87 94 102 98 93 94 79 53 57 82 95 90 81 83 96 101 99 101 103 98 96 99 91 80 81 82 78 73 68 68 77 80 71 60 56 58 54 53 56 54 53 56 58 59 57 56 56 55 53 60 70 74 73
93 104 99 97 95 102 87 53 63 95 103 102 102 100 101 100 100 100 100 101 103 99 92 93 102 102 98 102 95 88 91 93 95 93 84 85 97 102 96 93 100 93 69 65 84 100 101 91 82 86 92 93 95 101 101 97 97 94 86 85 84 80 80 79 78 84 87 83 75 70 66 56 47 50 50 48 49 48 46 47 47 44 42 43 51 59 62 64
102 99 98 99 93 96 91 77 89 104 100 101 102 99 101 100 99 101 100 101 103 100 90 87 96 101 100 102 97 89 88 91 92 87 81 87 97 100 94 90 98 97 79 77 88 95 103 102 89 80 83 90 91 92 96 98 96 91 86 86 86 85 87 84 83 87 86 82 82 82 76 62 47 44 49 54 56 53 49 49 50 50 47 46 52 57 56 55
100 99 100 98 94 91 88 89 100 103 99 102 102 100 101 100 100 101 99 98 94 89 84 82 90 96 98 100 100 96 92 90 88 81 79 86 95 102 95 81 86 92 84 89 94 90 98 105 97 88 87 94 98 92 88 92 94 89 82 82 85 88 91 84 79 84 84 78 80 81 78 71 58 49 51 54 53 53 52 53 57 61 64 62 62 62 59 56
99 100 100 100 98 93 92 99 102 99 100 102 101 100 100 100 101 100 98 94 84 77 79 82 85 87 91 97 101 100 96 93 88 78 73 80 92 103 94 75 81 94 92 95 100 97 101 102 98 100 100 98 101 99 91 89 91 90 82 79 83 88 90 80 72 80 85 81 81 79 77 78 73 68 71 69 61 56 55 57 59 61 70 76 73 69 67 65
100 101 100 99 96 94 98 101 100 99 99 99 100 101 101 100 99 96 94 90 81 76 76 75 74 73 76 87 98 101 101 99 93 81 71 72 83 101 101 80 77 91 97 96 90 85 90 90 84 92 101 97 94 98 98 94 93 94 88 84 86 90 91 81 73 80 88 88 88 84 84 86 79 77 83 83 77 70 64 64 64 63 75 86 85 78 73 67
101 102 101 94 90 96 102 100 99 98 96 97 103 101 96 94 92 88 85 79 73 69 63 58 57 57 59 70 85 94 97 98 96 85 74 72 77 93 101 84 68 76 94 101 89 74 79 88 85 89 101 100 90 93 99 98 99 99 92 86 85 89 94 92 87 90 94 93 88 81 81 84 77 71 74 77 80 80 75 75 75 74 79 83 81 78 74 68
100 101 100 94 94 101 102 97 95 93 92 98 102 95 84 80 81 79 72 65 61 56 48 45 48 49 51 61 73 79 83 93 98 86 76 82 89 92 92 80 65 67 84 97 93 79 75 84 91 97 102 101 95 97 99 98 100 99 88 82 83 89 98 101 101 100 97 92 86 76 71 71 72 72 73 76 79 79 80 83 83 82 82 79 75 74 73 71
100 102 100 98 100 101 98 92 86 83 85 88 87 78 68 65 67 64 54 49 50 47 41 40 45 49 53 62 67 66 73 91 101 88 76 85 97 97 92 82 70 68 77 82 83 81 78 80 90 99 102 101 99 99 100 101 100 90 76 72 79 89 96 99 100 99 93 86 82 79 74 70 72 78 83 84 82 77 80 85 84 81 82 81 78 77 75 72
Wind_Speed
41 41 41 41 41 40 40 40 41 41 42 42 43 43 44 44 44 45 45 45 44 45 44 45 45 46 46 46 47 46 46 46 46 45 40 38 39 39 37 35 34 35 37 38 38 38 37 37 36 35 34 32 32 32 32 32 32 31 30 27 22 21 21 22 25 26 27 28 28 27 28 26 26 30 31 30 25 24 26 24 24 26 27 24 20 21 20 20
43 43 43 42 42 42 41 41 41 40 40 41 41 41 42 43 43 43 44 44 45 45 45 45 45 45 46 47 47 47 46 46 46 44 39 40 43 41 38 35 34 34 36 38 38 38 37 37 37 36 35 34 33 32 32 32 32 30 28 24 19 20 23 25 26 26 27 30 30 26 25 26 28 31 31 30 27 25 26 25 25 26 27 24 20 20 20 19
44 44 44 44 44 44 44 43 43 42 42 42 41 41 41 42 42 42 43 43 44 44 45 45 45 45 46 46 47 47 46 46 46 43 40 43 45 43 39 36 35 34 36 37 38 38 38 38 38 37 36 35 34 33 32 32 31 29 27 21 19 23 26 27 28 28 29 31 32 28 26 28 30 33 32 31 28 24 24 26 27 27 27 25 21 20 20 19
46 45 45 45 45 45 45 45 45 45 45 44 44 43 43 42 43 42 42 42 43 43 44 44 45 45 45 45 46 47 47 47 45 42 43 45 46 44 40 37 36 35 35 36 37 38 39 38 37 37 37 36 35 35 33 32 31 29 26 21 20 24 26 28 28 30 30 31 33 30 27 29 32 34 33 31 27 24 25 26 26 26 26 25 22 21 21 20
47 47 47 46 46 46 46 46 46 47 47 46 46 45 44 43 43 43 43 43 43 43 43 43 44 45 45 45 46 47 47 47 46 44 45 46 46 44 41 39 37 36 35 34 35 38 39 39 38 37 37 37 37 36 34 33 32 30 26 23 24 26 28 29 29 29 30 31 33 32 29 29 31 33 31 29 27 25 26 26 26 25 24 24 23 23 22 20
47 47 48 48 48 47 47 47 47 47 46 46 46 45 44 43 43 42 42 42 43 43 43 42 43 44 44 44 45 46 47 47 47 45 45 47 47 45 43 41 38 36 35 34 34 36 39 40 39 38 36 37 37 36 36 35 34 32 27 27 28 28 29 30 30 30 31 31 32 32 31 29 31 31 28 28 27 25 24 24 25 24 25 24 24 24 21 20
45 46 47 47 48 48 47 47 47 46 46 45 45 44 44 43 42 42 42 42 42 42 43 42 43 43 44 44 44 45 46 47 47 45 45 46 47 46 43 42 40 38 36 34 33 34 37 39 40 39 37 37 37 36 37 36 36 34 30 29 30 30 31 31 32 32 32 32 31 32 31 30 30 27 25 27 26 24 23 24 24 24 25 26 25 23 21 20
43 44 45 46 47 48 48 48 47 46 46 45 45 45 44 43 43 42 42 42 41 42 42 42 43 43 43 44 44 45 44 45 46 45 44 46 47 47 44 43 42 40 37 36 34 33 35 37 39 40 39 37 36 36 37 38 37 36 32 31 32 32 32 33 34 34 34 34 32 32 30 30 29 24 24 26 25 24 24 25 26 24 25 26 25 23 21 20
42 42 43 44 45 46 47 48 48 47 46 46 45 45 45 44 44 43 43 42 42 42 41 41 42 43 43 43 44 44 40 41 46 47 46 47 49 49 47 45 44 42 39 37 36 35 34 35 37 39 39 38 38 37 38 39 39 37 34 32 33 33 34 35 35 35 35 35 34 32 29 29 29 24 23 24 24 25 25 26 26 25 25 25 25 23 22 20
42 43 43 42 43 44 45 46 47 48 47 46 45 45 45 45 44 43 43 42 42 42 42 42 41 42 43 43 44 42 37 41 48 48 48 49 50 50 48 47 45 43 41 39 37 35 33 32 34 38 40 41 41 40 40 40 38 37 35 33 34 34 35 36 36 36 37 36 35 33 28 28 29 24 22 23 23 26 26 26 27 26 25 24 24 24 21 19
42 43 43 43 42 42 43 44 45 46 46 45 45 45 45 44 43 43 42 42 42 42 42 43 42 41 41 43 43 39 37 42 48 48 49 49 49 49 49 47 46 44 42 41 38 36 34 33 35 37 39 41 42 41 41 40 37 37 36 35 35 36 37 38 37 37 37 37 36 32 27 26 26 24 23 24 25 26 27 27 26 26 25 23 23 24 23 21
42 43 44 43 43 43 43 43 43 44 44 44 44 44 44 43 43 42 42 42 42 42 42 42 43 42 41 41 41 38 39 44 48 49 49 49 48 48 48 47 46 45 44 42 40 37 36 36 36 36 36 37 40 42 42 39 37 37 36 37 37 38 38 39 38 38 37 36 34 31 26 25 24 23 24 26 27 28 28 28 27 26 24 23 22 23 24 23
42 42 43 44 44 43 43 43 43 43 43 43 43 43 43 43 42 42 42 42 42 42 42 42 42 43 42 38 36 38 41 46 49 48 48 49 48 47 47 46 45 46 45 44 41 39 38 38 37 36 35 35 38 41 42 41 39 39 39 38 39 40 39 39 39 38 36 35 33 28 24 22 22 23 25 27 28 28 29 29 28 26 24 23 22 22 24 24
43 42 43 43 43 44 44 44 44 44 44 44 43 43 43 43 42 42 41 41 41 41 42 42 42 43 42 37 35 40 44 47 48 47 47 48 46 45 46 47 46 45 45 44 43 41 40 40 39 38 37 36 36 39 41 42 43 43 42 40 40 40 40 38 38 36 34 34 33 27 21 20 21 24 25 27 27 27 29 30 29 27 25 23 23 23 24 24
44 43 42 42 43 44 44 44 44 44 44 44 44 43 43 42 42 41 41 40 40 40 40 41 41 42 42 38 36 41 45 46 46 45 47 47 45 43 44 46 46 44 44 44 44 43 42 42 41 40 38 36 36 37 39 42 44 45 45 43 41 40 37 36 35 34 33 33 31 26 20 19 21 23 24 26 26 26 29 30 29 27 25 25 26 25 24 24
44 43 43 42 42 43 44 44 45 45 44 44 43 43 42 42 41 40 40 39 39 39 39 40 40 40 41 38 37 41 44 45 44 45 47 46 43 41 42 45 46 45 45 44 45 45 44 44 42 40 38 37 37 36 37 40 42 43 44 43 41 38 34 33 32 31 31 31 29 24 20 19 20 22 23 25 26 26 28 29 28 26 25 27 26 25 24 23
44 44 42 42 42 42 43 44 44 44 44 43 43 42 41 41 40 40 39 38 37 37 36 36 37 38 39 38 38 40 42 44 45 46 47 45 42 42 43 45 46 47 46 46 47 47 47 46 44 41 39 38 37 37 38 38 36 37 39 39 39 38 35 32 30 29 29 30 28 24 20 19 19 21 23 24 25 26 28 29 28 25 25 25 24 25 25 24
43 43 42 42 42 42 43 43 44 44 44 43 42 41 40 40 39 39 39 38 37 36 35 34 34 35 36 38 39 40 42 46 48 49 49 46 44 44 44 46 48 49 49 49 49 49 49 48 45 43 42 40 39 39 36 32 29 30 31 33 36 37 37 34 29 28 28 28 27 24 21 20 20 21 22 23 24 26 29 30 27 24 24 23 23 24 24 22
43 43 42 41 41 41 42 43 43 43 43 42 41 40 39 39 39 39 38 37 36 35 35 34 33 33 34 36 38 39 42 47 50 51 51 48 46 46 47 49 51 52 52 52 51 51 50 49 48 46 44 41 39 36 33 29 27 28 28 30 33 34 35 32 28 28 28 28 26 23 20 20 21 21 22 23 25 28 31 30 26 24 24 22 21 21 20 19
43 43 42 41 41 41 42 42 42 42 41 41 40 39 39 38 38 38 37 36 35 35 35 34 33 32 32 34 36 38 41 44 48 51 51 49 48 48 49 52 54 54 54 53 52 51 51 51 50 47 43 40 37 35 33 31 29 28 28 29 30 30 31 28 27 28 29 28 25 22 20 20 21 20 21 25 27 29 31 29 25 24 23 21 19 18 17 19
44 43 42 41 41 40 41 42 41 41 40 40 39 38 38 38 38 37 36 35 35 35 35 35 34 31 31 34 35 38 41 43 46 49 49 49 49 50 51 54 55 56 54 53 51 51 52 53 50 46 43 40 38 37 35 33 31 30 29 28 28 29 29 28 28 28 27 27 24 22 21 19 20 20 24 29 30 30 30 28 25 23 22 20 18 17 17 18
44 43 42 41 40 40 40 41 41 40 40 40 39 39 38 38 38 37 35 34 34 35 34 34 33 29 30 34 36 38 41 42 45 48 49 48 49 51 52 53 55 55 53 52 52 52 54 53 50 46 44 42 40 39 37 35 33 32 30 29 28 28 27 28 31 29 26 25 24 23 21 16 17 23 30 35 34 31 28 26 25 23 23 20 17 16 17 17
44 43 42 41 40 40 40 40 40 40 40 40 39 38 38 37 37 36 35 33 32 34 33 32 31 28 29 35 36 38 39 40 43 45 47 47 47 49 51 52 53 54 53 53 53 54 54 52 48 47 45 44 43 41 39 36 34 33 32 31 28 26 26 27 31 31 27 24 23 23 20 15 17 29 37 38 36 33 27 25 25 24 23 19 17 16 17 16
44 44 43 41 40 39 39 39 40 40 40 39 39 38 37 37 36 35 35 32 31 33 32 29 29 27 29 34 36 36 37 39 42 43 45 45 45 47 49 50 51 52 53 52 52 53 53 49 45 46 46 45 44 42 40 38 36 35 33 32 28 25 23 26 30 29 27 26 25 22 19 16 18 29 38 38 37 33 28 26 25 24 23 22 22 21 20 19
45 44 43 42 40 39 38 39 39 40 40 39 38 37 37 36 35 35 35 32 30 31 29 27 28 28 31 35 35 35 37 39 41 42 44 44 44 44 46 49 50 51 51 51 51 52 52 48 45 46 46 45 44 43 41 39 37 37 35 32 29 23 21 27 30 29 28 27 27 26 22 16 18 28 37 38 37 34 30 27 23 23 24 25 25 24 23 20
46 45 44 42 40 38 38 38 39 39 39 39 38 36 35 34 35 35 35 32 29 28 28 27 28 30 31 32 32 33 35 37 38 41 43 43 43 43 44 47 49 49 49 50 51 52 52 49 47 47 47 46 46 44 43 41 40 38 35 32 29 24 25 31 31 31 30 25 23 26 23 16 18 30 38 39 37 35 33 28 24 25 26 25 26 25 25 21
47 47 46 44 40 38 38 38 38 38 38 38 36 34 32 32 34 33 32 31 28 27 27 27 28 28 28 29 30 31 32 34 36 39 40 42 43 43 44 46 47 48 48 50 52 53 52 50 49 48 47 47 47 46 44 42 42 38 32 32 30 26 29 34 33 33 32 26 20 22 21 16 19 31 39 40 38 36 33 29 26 27 27 26 26 27 26 21
48 48 47 45 41 38 37 37 38 38 37 36 34 31 30 31 32 30 29 28 26 25 25 25 27 26 27 29 31 30 29 32 36 36 37 38 40 42 43 45 45 46 47 50 53 52 50 51 50 48 48 48 47 45 43 43 42 35 30 32 30 28 33 35 34 32 31 28 23 20 23 21 22 31 39 40 38 36 33 29 28 27 27 27 27 27 25 20
50 49 48 47 43 39 37 37 37 36 36 34 31 29 29 30 29 27 26 23 22 22 22 23 24 24 25 26 28 30 31 32 34 35 36 37 38 39 41 42 43 44 45 48 50 49 47 48 46 45 47 47 44 42 42 43 42 34 31 32 29 30 36 35 32 29 28 30 27 24 26 26 25 31 39 40 38 38 35 32 30 27 27 28 28 27 24 21
52 51 50 48 44 40 37 37 36 35 34 32 29 28 29 29 26 24 23 20 20 21 20 21 20 21 22 22 24 28 32 33 34 35 37 37 37 38 39 40 41 43 45 47 48 47 46 45 44 45 46 44 41 41 42 43 41 35 33 33 31 33 38 36 32 28 29 32 30 26 25 26 25 28 35 40 40 39 37 35 33 29 28 30 28 26 24 22
54 53 51 49 46 41 38 37 36 34 32 29 28 28 29 26 23 21 20 19 20 20 20 21 20 19 21 22 23 26 31 34 36 37 38 38 38 39 40 41 42 44 46 48 49 47 47 46 47 47 45 44 43 42 42 42 41 39 36 34 34 37 40 39 35 32 34 35 31 26 25 28 28 27 30 35 37 37 36 35 33 30 28 27 26 26 25 21
56 54 53 51 47 42 39 37 35 33 30 28 28 29 28 24 21 21 20 19 20 20 20 20 19 18 20 22 24 26 30 34 37 38 38 39 40 40 41 42 44 46 48 50 50 49 49 48 48 47 45 44 45 45 44 43 43 42 41 38 39 41 44 45 40 38 39 37 31 28 29 34 34 30 29 32 35 36 35 33 33 31 28 25 23 23 21 18
52 52 52 49 45 41 39 37 34 32 30 29 29 30 28 23 21 22 21 21 22 21 20 19 19 19 19 20 23 26 29 33 36 38 39 39 40 40 40 40 42 44 46 48 48 49 49 48 48 48 47 46 46 46 46 46 45 45 44 42 43 45 48 49 45 42 42 39 33 32 34 39 40 35 33 32 33 34 34 33 33 32 29 26 22 20 18 17
45 46 46 44 40 39 38 35 33 31 30 30 30 30 26 23 23 23 22 24 23 22 21 20 20 20 20 20 21 24 28 32 35 37 39 40 40 40 40 40 41 42 43 44 46 47 48 49 49 49 49 47 45 45 44 42 42 44 43 42 44 45 47 48 48 46 45 41 37 37 40 43 43 41 37 34 35 35 35 35 35 34 32 29 24 21 19 18
35 36 36 35 35 36 36 33 32 32 30 31 31 28 24 24 25 25 25 25 23 21 20 19 20 21 19 18 20 21 25 30 33 36 39 39 40 40 40 40 41 42 43 43 44 45 46 46 46 46 46 46 44 43 41 40 40 41 42 44 45 45 45 47 47 46 44 42 40 42 45 47 47 44 39 36 38 38 38 39 38 36 33 29 25 22 20 19
26 27 26 28 32 33 33 31 32 32 31 32 29 23 24 27 27 28 29 27 24 22 19 16 18 19 18 16 20 23 22 25 28 32 35 37 40 40 40 40 40 40 41 42 42 42 43 43 41 41 43 43 43 41 39 41 40 40 43 46 45 44 46 48 46 44 43 43 42 44 47 48 47 44 39 37 38 39 40 41 41 38 34 29 25 22 22 22
19 20 20 25 30 30 30 31 31 32 33 31 26 25 29 31 31 31 30 27 27 25 21 16 14 16 18 19 22 23 21 20 24 26 28 32 36 39 41 40 40 39 39 39 40 40 40 40 39 40 39 39 40 38 36 38 38 39 43 44 42 44 49 51 47 44 45 45 44 45 46 46 44 43 40 37 36 37 39 41 41 39 33 27 23 21 23 24
16 16 18 23 26 27 29 30 31 33 33 29 28 32 35 34 33 32 28 26 30 29 24 18 14 15 21 24 24 23 22 19 20 21 22 25 29 34 40 41 41 41 39 38 39 38 38 37 37 39 37 34 36 37 36 36 36 38 39 38 39 44 50 53 51 48 47 48 45 44 45 44 42 41 39 34 32 34 36 39 39 35 31 28 25 25 26 25
13 13 17 21 22 25 28 29 31 33 30 30 35 37 39 38 35 31 26 27 31 30 27 23 17 17 22 26 25 23 23 22 18 17 20 20 20 25 32 36 39 40 40 39 38 38 37 35 35 37 35 33 35 37 38 37 36 37 35 33 36 42 46 51 54 52 49 49 46 44 44 45 43 41 36 30 28 31 35 39 39 36 34 34 33 32 30 25
9 11 16 18 18 20 26 28 32 32 30 35 42 42 43 42 34 28 26 28 31 30 28 27 21 20 22 25 26 22 23 25 21 17 17 19 19 18 22 29 33 37 38 39 38 38 37 36 36 36 37 37 39 40 38 36 35 37 37 35 35 40 44 48 52 54 52 49 47 46 45 46 45 41 36 31 30 33 36 40 41 41 39 38 37 35 30 27
9 12 14 16 15 17 23 27 30 31 34 43 46 45 46 40 30 27 27 30 33 28 25 27 26 24 23 23 24 24 23 23 23 20 17 19 22 18 17 22 26 31 36 38 39 40 38 37 38 38 39 40 42 43 41 38 37 36 37 37 36 39 44 47 49 53 54 50 49 48 47 46 44 42 39 36 34 35 36 37 38 40 39 37 35 33 29 29
11 13 14 13 12 14 19 24 28 32 40 47 46 46 47 38 28 27 29 31 34 30 26 27 28 27 25 22 21 24 25 24 24 24 18 19 21 16 13 16 18 24 34 38 39 40 39 39 41 41 41 42 44 46 45 43 42 39 37 36 36 37 43 47 48 50 53 52 50 50 48 47 45 44 43 40 38 37 37 37 36 35 35 34 33 32 31 31
16 20 18 13 11 12 14 21 30 37 43 46 45 48 47 35 26 28 30 31 33 30 27 26 27 27 24 23 22 23 25 25 25 26 22 20 22 18 14 16 18 22 34 39 38 38 38 40 43 44 43 43 44 47 48 46 45 43 40 39 38 36 40 46 47 46 47 49 50 50 50 50 49 47 46 44 41 40 38 38 37 35 33 32 32 32 32 32
22 23 19 13 13 15 15 21 32 37 40 44 46 49 43 30 27 30 31 31 32 30 28 25 25 22 19 23 26 24 25 26 26 27 25 23 23 21 19 20 20 23 34 42 40 39 39 41 44 45 44 45 44 45 48 49 48 46 45 43 40 37 38 43 48 47 43 42 44 45 47 52 53 50 49 47 45 43 42 41 41 40 39 38 35 34 34 34
23 20 17 14 14 15 15 22 30 33 38 44 48 46 36 26 29 34 32 31 31 30 27 25 23 19 15 21 28 26 24 26 27 28 28 27 26 24 22 23 23 25 35 44 44 41 40 40 43 45 46 47 48 46 46 48 49 48 47 46 43 40 39 43 48 50 46 39 37 38 41 48 51 48 46 45 43 43 43 43 44 44 44 43 41 39 38 38
22 18 16 15 14 13 16 24 28 31 38 45 47 43 31 25 31 35 32 32 32 30 28 27 25 19 16 20 27 28 26 25 27 28 28 29 27 24 24 27 27 28 35 45 47 44 42 40 41 44 45 46 47 47 44 45 47 48 48 49 47 43 40 43 46 48 48 43 35 34 37 42 47 47 43 40 37 36 36 36 37 39 41 43 44 43 42 42
20 18 16 16 13 15 21 25 26 31 40 45 45 39 28 25 31 33 33 33 33 32 29 26 24 19 18 21 24 27 28 25 26 28 28 30 28 24 25 29 30 29 34 42 47 47 46 42 40 41 42 42 44 45 43 42 44 46 47 49 50 47 43 45 46 45 47 46 39 36 37 39 43 44 41 39 36 34 34 33 34 35 36 38 42 43 42 42
19 18 17 15 13 19 25 24 23 32 42 44 42 34 26 25 29 31 34 32 30 30 26 23 21 18 18 20 21 24 28 28 26 27 28 30 27 23 26 31 31 30 34 41 47 48 47 43 40 39 40 41 44 45 44 43 43 44 47 49 51 51 48 48 49 47 45 44 41 39 39 39 40 39 37 36 34 33 33 32 34 36 34 34 36 38 39 38
19 19 16 12 15 23 25 22 25 35 41 41 38 30 23 24 26 29 32 28 24 24 23 21 21 19 18 19 19 21 25 28 29 28 27 30 26 22 27 33 32 31 34 38 43 45 44 41 39 39 41 43 44 45 44 44 44 44 48 52 55 54 51 49 49 48 44 41 41 42 40 38 39 39 37 35 33 32 32 32 33 35 35 33 33 34 35 35
21 19 15 16 23 25 23 24 30 35 36 36 33 27 23 24 24 24 25 22 18 19 20 19 19 18 17 17 17 17 17 23 30 30 27 28 26 22 27 32 32 32 34 35 37 39 40 38 37 40 42 44 45 45 43 44 46 46 48 53 57 56 52 48 47 46 43 41 44 47 45 42 41 40 40 39 36 34 33 33 34 35 36 36 34 33 32 31
22 19 19 24 26 24 24 29 32 33 32 31 29 26 24 23 21 19 18 17 16 17 17 17 16 16 16 15 16 17 14 18 28 30 27 28 27 25 28 32 31 32 34 35 35 35 37 37 37 39 41 42 45 45 43 43 46 47 48 51 56 56 53 50 47 46 45 45 47 49 48 46 42 40 41 41 40 37 36 36 36 36 37 38 38 35 31 28
21 21 25 27 25 26 30 33 32 31 30 28 26 25 22 20 18 15 15 15 15 15 16 17 16 16 17 16 17 18 16 18 27 29 27 26 24 22 27 32 31 32 34 35 33 32 34 37 39 39 37 38 40 42 41 42 44 45 45 48 53 54 54 53 51 49 49 50 50 49 48 46 44 41 40 40 39 38 37 36 38 38 37 37 37 35 31 27
Wind_Direction
273 273 273 272 272 270 269 267 266 265 265 264 264 264 263 263 262 262 261 260 259 258 257 256 254 253 252 251 249 247 246 245 244 243 242 241 241 242 242 243 242 240 238 236 235 235 235 235 234 233 233 232 231 230 229 229 231 233 234 233 232 229 221 219 224 225 225 224 220 218 223 222 227 236 242 247 243 241 246 247 247 247 250 250 249 251 250 251
272 272 272 272 272 271 270 269 267 266 265 265 264 264 263 263 262 261 261 260 259 258 257 256 255 253 252 250 249 247 246 244 243 242 239 239 240 240 239 240 240 239 239 236 234 234 234 234 233 232 231 230 229 228 228 228 229 229 229 225 219 217 215 217 220 222 222 224 221 214 219 222 227 234 239 243 241 239 244 247 248 249 254 254 251 252 252 251
272 271 271 271 271 270 270 269 269 268 267 266 265 265 264 263 262 261 260 259 259 258 257 256 255 253 251 250 249 247 245 244 243 240 236 237 239 239 238 238 239 239 239 237 233 232 233 233 232 232 231 230 229 228 226 227 227 225 224 216 209 215 216 218 220 221 221 224 223 212 215 223 227 235 237 239 239 239 242 247 249 249 253 255 252 251 252 251
272 271 270 270 270 270 269 269 269 269 269 268 267 266 265 263 262 261 260 259 258 257 256 255 255 254 252 250 248 246 245 244 242 237 234 237 238 238 237 236 237 238 238 238 234 231 232 233 232 232 231 231 230 228 227 226 226 224 220 208 204 215 219 221 222 223 224 226 225 214 215 225 229 234 238 239 238 237 240 245 250 252 251 252 251 250 250 250
272 271 270 270 269 269 269 269 269 269 269 269 268 267 265 263 262 261 260 259 258 257 255 254 254 253 252 250 247 245 244 243 240 236 234 236 236 236 235 235 235 236 237 237 235 232 231 231 231 231 230 230 230 229 228 227 226 224 219 212 209 215 218 221 223 226 229 229 230 221 217 226 233 236 241 244 241 238 241 245 249 250 249 248 249 250 249 250
273 272 271 270 269 268 268 268 268 269 269 269 268 267 265 263 261 260 259 258 257 256 255 253 252 252 251 249 247 245 243 242 239 235 234 235 235 234 233 234 233 234 235 236 236 233 231 231 230 230 230 230 229 228 229 227 227 223 220 221 220 220 222 223 224 227 230 231 234 231 224 225 235 242 246 247 243 241 239 241 244 245 245 246 247 249 249 251
275 274 272 271 270 269 268 267 267 267 268 268 267 266 264 262 261 260 258 257 256 255 254 253 251 250 250 249 247 245 243 242 240 236 233 234 234 233 232 232 232 232 233 234 235 233 231 230 230 230 230 230 229 228 228 227 227 224 221 223 223 224 225 226 228 228 230 232 235 237 231 227 237 248 250 248 246 244 238 236 241 244 245 247 248 250 250 252
279 277 275 273 271 270 268 267 266 265 266 266 266 265 264 262 261 260 258 257 256 255 254 252 250 249 248 248 247 245 243 241 240 236 232 232 233 232 230 230 230 230 231 232 232 232 231 230 229 229 229 230 230 229 228 227 226 225 223 224 225 225 226 228 231 232 233 234 235 237 236 233 239 248 250 249 247 244 239 235 237 241 245 248 249 250 253 254
281 279 278 275 274 272 270 268 266 265 265 265 264 263 263 262 261 260 259 258 256 255 254 253 251 248 246 246 246 245 241 237 237 235 232 230 231 231 229 228 228 228 228 229 230 230 230 230 229 228 228 228 228 228 228 227 225 223 222 223 226 227 227 230 233 235 236 237 236 237 239 237 239 244 247 249 245 241 240 237 235 235 240 246 246 248 252 252
280 279 279 278 276 274 272 270 268 265 264 263 262 262 262 261 261 260 259 258 256 255 253 252 251 248 246 244 245 244 236 233 236 235 232 231 230 230 229 226 226 226 227 227 228 229 229 230 230 227 226 226 226 227 227 227 226 223 221 221 224 226 226 229 232 235 237 239 238 238 238 238 240 243 242 245 244 240 239 239 238 236 234 238 240 243 244 244
279 278 277 277 277 275 274 271 269 267 264 262 261 261 261 261 261 261 260 259 257 256 254 252 251 249 246 243 243 241 232 233 237 234 232 231 230 229 229 227 225 225 225 226 227 226 227 228 228 227 225 225 225 226 228 228 227 224 222 221 223 225 226 228 229 232 235 238 240 238 236 237 241 242 238 239 239 237 238 239 240 240 238 236 237 239 239 239
279 277 275 275 275 275 274 272 270 268 265 263 261 261 260 260 260 260 260 259 258 256 254 252 250 249 247 244 242 237 231 233 236 234 231 230 229 228 228 229 227 225 224 225 225 224 225 227 227 227 225 225 224 225 227 226 227 226 223 223 224 225 227 229 229 230 233 236 239 239 237 237 242 242 237 237 235 232 234 236 237 240 240 237 235 237 239 240
281 277 275 274 274 274 273 272 270 268 266 264 262 261 261 260 260 259 259 259 258 257 255 253 250 249 247 245 240 235 232 233 235 235 232 230 227 225 225 227 228 227 225 224 224 224 224 225 226 226 225 224 223 224 225 224 224 224 222 221 223 225 227 228 230 231 233 236 238 238 236 237 240 240 238 238 236 231 230 233 235 236 236 236 234 235 239 242
283 278 275 273 273 273 272 272 271 269 266 264 263 262 261 261 260 259 259 258 258 257 256 253 250 248 247 243 238 234 233 234 235 236 233 230 227 225 223 223 224 226 226 224 223 223 224 224 224 224 224 223 223 224 225 224 223 223 221 219 221 225 226 227 230 232 235 237 239 237 231 231 234 233 236 239 237 233 230 231 234 234 233 233 232 233 237 241
283 280 277 274 273 272 272 271 270 269 267 265 264 263 262 261 260 259 258 257 256 256 255 254 251 249 245 241 237 235 234 235 235 234 233 230 226 224 223 223 223 223 224 224 224 223 224 224 223 222 222 222 222 223 224 225 225 224 223 220 219 223 225 226 230 232 236 239 241 237 227 225 230 230 233 236 236 232 230 230 232 233 232 231 232 234 238 242
282 280 277 275 273 272 271 270 270 269 267 266 264 263 262 261 260 258 257 255 254 254 254 253 252 249 244 240 238 236 234 234 233 231 231 229 224 221 221 222 222 222 222 223 223 223 223 224 223 223 223 222 222 222 222 225 225 226 227 224 220 222 224 226 229 231 235 239 240 236 226 223 229 230 230 232 234 232 230 230 230 230 231 232 233 236 239 243
281 279 277 276 273 272 271 270 269 268 267 266 265 263 262 261 259 257 255 253 252 252 253 253 252 249 245 241 238 235 232 231 230 229 229 226 222 218 218 219 220 220 220 220 221 221 221 222 221 221 222 222 222 221 222 223 224 226 228 227 224 223 223 225 227 228 232 237 237 233 226 223 226 226 226 229 232 232 231 230 229 227 229 233 236 239 243 243
280 279 277 275 273 272 270 269 269 268 266 265 264 263 261 260 258 256 253 251 250 251 252 253 252 250 247 242 237 233 230 228 227 226 225 223 218 216 215 216 218 218 218 218 219 220 221 222 220 219 219 219 220 220 221 223 225 227 228 228 227 225 224 223 225 226 228 232 233 231 226 224 222 220 223 227 230 232 232 230 227 225 226 232 239 242 243 243
281 279 277 275 273 271 270 269 268 267 266 264 263 262 260 258 256 254 251 249 249 251 252 253 253 252 250 244 238 234 231 229 228 226 223 219 215 213 212 213 217 217 217 218 218 218 220 221 220 219 217 217 218 219 221 222 225 227 226 226 226 226 225 223 224 226 226 226 227 225 223 223 218 215 223 229 229 229 228 227 223 222 224 227 234 238 237 234
281 279 278 275 273 271 270 269 268 266 265 264 262 261 259 257 255 253 250 250 251 252 253 252 253 253 252 246 240 235 232 230 230 229 226 219 214 212 210 211 215 216 216 217 218 218 219 220 219 218 218 218 219 219 220 220 222 224 223 222 223 224 222 220 222 227 227 225 224 220 218 220 211 207 218 227 231 228 226 228 223 221 225 222 224 230 232 229
281 279 278 276 274 272 270 269 268 266 264 263 261 259 258 256 254 252 249 250 251 251 251 252 253 253 250 245 238 233 231 228 228 229 228 223 216 213 211 211 214 216 216 216 217 218 219 220 219 217 217 218 219 219 219 219 220 221 221 220 219 219 217 212 216 223 226 225 223 217 210 212 207 202 210 219 229 232 230 233 229 222 224 222 224 226 225 228
281 279 278 276 274 272 270 269 267 265 263 261 260 258 256 254 253 251 248 249 251 251 250 252 254 252 247 245 238 232 229 227 226 226 226 224 220 217 215 214 214 215 216 215 216 218 219 220 218 217 217 217 219 219 218 217 218 219 219 218 215 216 215 209 210 213 217 219 219 212 201 196 201 199 203 210 221 231 235 239 234 226 226 228 234 234 224 222
281 279 278 276 274 272 269 268 266 264 262 261 259 257 256 254 253 252 251 251 253 253 250 251 254 249 244 244 239 232 228 226 224 224 225 224 222 221 218 217 216 215 215 215 217 219 220 219 217 217 216 216 217 217 217 217 216 217 217 216 212 213 215 211 209 207 207 209 210 207 193 184 195 196 198 204 213 225 232 236 235 231 232 237 243 242 228 216
280 278 277 275 273 270 268 267 265 263 262 260 259 257 256 255 255 255 254 254 254 254 252 251 253 247 241 242 238 231 227 224 222 222 223 222 221 221 221 219 217 216 216 216 217 220 222 220 219 219 218 217 217 217 218 217 216 216 216 214 210 209 213 212 210 205 202 200 198 197 189 185 198 199 199 203 212 222 228 229 232 233 234 238 241 241 235 225
279 277 276 274 272 269 267 265 263 262 261 260 258 257 256 256 256 255 253 253 252 252 252 249 247 241 237 238 235 228 224 222 220 219 220 220 219 220 221 220 218 217 215 215 216 219 221 219 218 220 219 217 217 216 217 217 217 217 215 213 210 206 206 205 205 202 201 200 196 195 191 189 202 202 201 205 212 220 225 225 228 231 231 235 240 245 246 243
278 277 275 273 270 268 265 263 262 261 260 258 258 257 256 256 255 253 252 251 249 248 249 247 244 241 239 238 235 228 224 221 219 219 218 217 216 216 219 221 219 217 214 213 216 217 218 218 216 218 219 218 217 216 216 217 217 216 214 214 211 202 194 195 198 200 199 194 194 200 194 191 206 201 199 205 212 219 222 222 223 228 231 236 242 249 254 257
277 275 274 272 269 265 263 261 260 259 258 257 256 256 256 256 254 253 251 249 246 244 244 243 241 240 237 233 229 226 224 221 218 218 218 216 215 214 215 218 219 217 213 212 214 215 216 216 215 216 217 217 216 215 215 217 217 214 213 216 213 198 187 191 198 204 201 187 185 199 191 191 213 205 200 206 213 219 221 219 222 228 232 237 242 248 254 260
276 273 272 270 266 262 260 258 257 256 255 255 255 254 253 252 250 250 249 246 244 242 240 239 238 236 232 227 223 219 218 219 217 214 215 216 216 215 214 215 216 216 214 213 215 214 215 216 215 215 216 216 216 214 215 218 217 212 211 217 214 195 186 193 203 208 205 192 185 190 185 188 208 206 204 210 215 220 221 222 226 230 233 237 242 248 253 256
272 270 268 266 263 259 256 254 253 252 252 252 252 250 248 247 246 246 244 239 237 236 235 235 233 230 229 227 221 213 209 213 214 211 210 212 214 215 216 215 214 214 214 215 216 214 214 217 216 216 218 218 216 215 214 217 216 210 210 215 209 192 185 192 204 207 205 200 194 192 188 190 202 207 212 218 221 224 227 231 233 232 234 238 243 249 255 258
267 265 263 262 259 255 251 250 249 248 248 248 247 245 244 243 240 239 235 228 226 226 224 225 224 221 221 219 217 212 208 207 209 209 206 207 210 211 213 214 212 212 212 213 215 213 213 215 215 215 217 217 217 216 215 216 214 207 208 211 204 191 186 191 200 201 202 206 203 195 193 196 204 212 218 224 229 232 235 236 235 233 234 239 245 254 262 265
261 258 257 256 254 250 246 245 243 243 244 243 241 239 237 235 231 228 223 217 215 213 211 211 209 208 210 207 206 207 207 205 206 207 204 203 205 206 208 209 208 209 210 210 211 211 211 212 212 213 214 214 214 213 213 214 212 206 204 206 201 192 190 193 198 199 204 212 207 193 192 197 203 211 217 224 231 236 240 240 240 241 241 245 253 262 266 267
255 252 250 249 248 244 240 240 238 238 238 237 235 233 231 225 218 216 211 201 198 199 200 202 198 197 202 202 200 200 203 206 206 206 205 204 204 204 207 209 207 207 208 208 208 208 208 210 211 211 211 211 212 211 211 211 210 207 202 200 196 192 193 197 197 200 208 214 205 189 192 199 203 211 222 231 237 239 241 241 241 245 248 251 256 260 260 261
251 248 246 245 242 238 234 233 231 231 230 230 229 228 225 212 199 202 198 188 189 192 193 197 196 192 194 197 199 197 197 203 206 206 205 203 204 204 205 208 210 209 210 210 208 207 207 208 209 209 209 209 210 210 210 210 209 206 202 199 196 192 195 198 198 202 209 211 201 189 195 203 207 216 228 236 240 242 242 242 241 243 244 245 248 249 250 255
247 244 242 240 237 233 229 225 224 224 224 223 223 223 216 198 190 192 184 179 186 190 189 194 196 189 184 189 195 196 196 199 203 206 205 203 203 203 202 205 208 209 210 210 211 210 209 208 209 210 209 208 208 209 210 211 212 210 205 202 200 197 197 199 200 204 210 210 199 191 196 205 212 222 227 227 232 237 239 241 242 239 237 238 237 236 241 250
239 236 235 232 229 227 223 218 217 217 217 218 219 216 201 186 186 182 170 170 179 182 180 186 191 181 171 178 185 189 196 200 202 205 206 204 203 202 201 204 206 206 207 208 209 211 211 210 210 212 213 210 207 208 208 208 210 212 208 204 204 203 200 201 202 205 210 209 200 195 201 209 216 222 222 220 226 232 234 237 238 236 235 236 232 229 235 244
226 225 223 220 218 218 215 210 210 209 210 214 212 200 183 179 178 170 164 169 174 175 172 179 190 177 159 166 176 178 188 198 203 206 208 206 203 201 200 202 205 206 207 209 208 209 211 210 208 211 215 213 209 206 207 208 207 208 210 208 208 204 200 202 205 206 208 206 202 202 207 213 218 221 219 218 223 229 230 232 233 234 236 236 232 229 235 242
207 209 211 212 211 209 205 203 203 202 204 206 196 176 173 174 169 162 162 168 170 172 171 172 182 173 159 161 166 167 172 188 200 206 211 212 206 202 199 199 203 204 205 208 208 207 210 208 205 208 212 214 211 206 207 210 208 208 210 210 207 202 199 203 208 208 208 205 204 207 212 217 221 225 223 217 218 225 229 229 231 233 234 235 236 235 240 245
184 197 209 211 204 201 200 197 196 197 198 192 175 168 170 166 158 156 159 166 170 171 169 167 170 169 165 163 161 162 164 178 197 199 203 212 211 206 202 200 202 202 201 205 207 206 206 205 205 207 207 209 209 205 203 207 207 208 211 210 207 203 201 204 207 209 209 206 207 210 215 220 224 229 229 222 218 222 228 230 231 232 233 236 240 241 244 249
170 195 212 206 196 197 197 192 191 193 189 175 165 166 164 156 152 154 159 169 172 169 168 169 165 159 165 167 165 167 171 174 185 192 194 197 201 206 205 202 203 202 198 199 204 206 204 200 200 203 201 197 198 201 201 203 204 204 204 207 208 207 205 206 208 211 211 209 209 210 215 221 224 227 227 223 222 222 225 228 229 231 234 237 241 245 248 250
167 202 207 194 189 196 194 189 189 187 174 162 161 162 159 153 153 159 164 171 170 166 169 172 164 155 164 171 166 168 180 179 173 180 187 179 174 186 196 198 203 205 200 197 200 204 202 197 195 196 196 192 192 198 199 198 203 205 202 202 204 204 205 207 208 212 213 212 211 211 216 222 224 225 223 217 217 219 220 223 226 229 232 235 240 245 248 249
184 198 187 177 179 189 188 187 186 176 161 157 159 160 158 154 156 165 170 171 169 165 164 167 167 163 166 171 168 172 185 184 172 172 175 166 162 166 177 186 194 201 201 197 199 202 200 195 191 191 193 192 192 197 195 192 200 207 207 206 205 202 203 205 208 212 214 215 214 213 216 221 223 224 225 220 216 215 217 220 224 227 230 232 236 241 245 248
175 159 140 140 154 171 180 184 180 166 155 157 160 160 159 156 157 168 173 172 170 166 159 161 170 173 174 176 176 178 185 184 175 174 173 164 160 159 165 175 178 190 198 198 200 202 199 193 188 188 191 191 193 196 195 193 197 203 205 206 207 205 202 204 207 211 215 217 217 216 217 219 221 224 227 226 222 220 221 223 226 229 230 231 233 237 242 246
144 130 118 118 141 164 177 179 172 161 154 158 162 161 160 158 156 165 172 171 171 168 159 159 168 173 178 186 186 182 185 185 178 178 178 164 159 162 168 174 172 181 192 194 197 201 201 195 189 188 191 191 193 197 197 196 198 201 202 202 207 209 204 204 207 210 214 217 217 218 218 220 222 224 227 229 229 227 225 226 228 230 233 235 235 236 238 240
134 123 118 129 156 165 171 172 166 159 157 161 165 163 160 156 154 164 171 170 172 172 160 155 165 167 169 185 190 185 185 186 181 183 180 165 165 174 174 173 172 176 186 190 194 199 201 199 194 191 191 191 193 197 198 198 200 202 203 202 204 206 203 203 206 208 212 216 217 217 219 220 223 226 230 233 234 233 232 232 232 234 238 240 238 236 236 238
131 118 118 138 157 158 164 169 165 161 161 164 165 162 155 149 156 166 171 169 172 174 163 155 164 170 166 179 187 185 185 187 183 184 181 172 177 183 176 174 174 176 185 189 192 197 200 201 198 196 194 192 194 197 196 197 200 202 204 204 203 201 199 201 205 206 208 212 217 220 220 221 223 227 230 233 235 236 235 236 237 238 239 239 238 237 237 239
126 118 123 136 147 153 160 164 162 162 163 165 166 161 150 146 157 164 169 172 174 178 173 164 165 170 168 174 182 183 186 188 185 183 180 176 183 186 180 180 181 180 185 189 191 195 198 200 200 200 199 197 198 202 201 199 200 201 202 203 201 198 197 199 202 205 206 209 216 223 224 223 225 228 230 233 235 236 236 234 235 236 237 237 238 239 238 239
117 119 123 124 134 153 156 155 159 163 164 167 167 160 146 145 158 165 171 176 179 182 180 173 168 166 166 171 179 184 188 190 187 186 179 175 184 193 187 184 183 179 183 189 193 196 197 199 199 199 200 200 202 207 208 207 205 203 203 203 200 198 198 197 199 202 206 210 216 222 223 224 227 231 234 237 237 237 236 233 231 231 233 235 236 237 237 236
113 116 116 115 137 157 152 149 159 165 166 168 166 155 142 147 161 173 178 179 181 183 183 181 177 173 171 175 179 186 191 193 191 191 183 175 183 195 189 186 186 180 182 191 196 197 198 200 198 195 197 201 204 207 209 211 210 208 207 205 201 200 200 200 199 199 203 209 216 222 223 222 223 225 230 235 235 233 233 232 230 230 231 231 231 232 233 233
115 116 113 120 148 152 145 144 158 165 167 167 162 149 141 153 167 176 180 181 182 182 183 185 185 183 181 182 184 186 191 196 197 196 188 180 184 191 187 190 191 182 182 193 199 198 198 200 200 197 197 202 206 208 209 211 212 211 210 206 203 201 201 201 200 199 202 207 213 219 222 221 219 218 221 227 229 229 229 228 228 228 228 228 229 231 233 235
117 113 112 130 143 143 138 144 156 164 166 164 159 153 151 162 169 170 175 179 180 181 185 186 188 192 192 190 191 192 197 203 202 199 192 185 187 191 189 193 196 188 186 195 200 198 196 196 197 197 199 204 208 208 210 211 210 209 208 207 206 203 202 200 199 200 203 208 211 214 216 217 217 218 219 223 225 226 228 230 228 227 228 230 232 235 237 239
120 114 120 134 139 137 138 146 155 161 162 161 160 159 159 161 163 165 172 177 178 183 187 188 190 195 195 190 191 197 202 200 198 197 192 188 189 192 193 196 199 194 192 197 201 200 195 193 193 195 200 207 209 208 210 210 208 208 209 208 207 205 202 200 200 202 205 209 212 213 214 216 216 217 219 221 223 225 229 232 231 230 230 231 234 237 239 238
123 123 132 137 134 134 140 147 154 158 160 161 161 159 158 157 160 169 174 174 177 183 187 189 190 189 188 185 187 193 194 190 191 194 194 192 191 193 196 199 200 199 198 200 203 202 196 195 196 198 204 211 209 206 207 207 207 209 211 209 206 205 205 204 205 206 208 210 212 214 215 217 218 219 221 222 224 225 229 234 235 234 232 231 233 235 235 236